| time (UTC) | temp F | wind direction | speed MPH | gust MPH | rain 1hr in | rain 24hr in | rain mn in | humidity % | barometer mb |
| 20260506012143 | 53 | 278 | 2.0 | 3.0 | 0.00 | 0.08 | 0.04 | 57 | 1010.7 |
| 20260506011143 | 53 | 263 | 2.0 | 4.0 | 0.00 | 0.08 | 0.04 | 56 | 1010.5 |
| 20260506010122 | 53 | 260 | 1.0 | 3.0 | 0.00 | 0.08 | 0.04 | 56 | 1010.5 |
| 20260506005122 | 53 | 263 | 2.0 | 4.0 | 0.00 | 0.08 | 0.04 | 55 | 1010.3 |
| 20260506004123 | 53 | 272 | 2.0 | 4.0 | 0.00 | 0.08 | 0.04 | 55 | 1010.3 |
| 20260506003122 | 53 | 262 | 2.0 | 4.0 | 0.00 | 0.08 | 0.04 | 54 | 1010.2 |
| 20260506002122 | 54 | 265 | 2.0 | 5.0 | 0.00 | 0.08 | 0.04 | 54 | 1010.2 |
| 20260506001122 | 54 | 275 | 2.0 | 4.0 | 0.00 | 0.08 | 0.04 | 54 | 1010.0 |
| 20260506000143 | 54 | 255 | 2.0 | 4.0 | 0.00 | 0.08 | 0.04 | 53 | 1010.0 |
| 20260505235122 | 54 | 264 | 2.0 | 4.0 | 0.00 | 0.08 | 0.04 | 53 | 1010.0 |
| 20260505234122 | 54 | 263 | 2.0 | 5.0 | 0.00 | 0.08 | 0.04 | 53 | 1010.0 |
| 20260505233143 | 55 | 260 | 1.0 | 3.0 | 0.00 | 0.08 | 0.04 | 53 | 1010.2 |
| 20260505232146 | 55 | 256 | 3.0 | 5.0 | 0.00 | 0.08 | 0.04 | 53 | 1010.2 |
| 20260505231121 | 55 | 294 | 3.0 | 6.0 | 0.00 | 0.08 | 0.04 | 52 | 1010.2 |
| 20260505230122 | 55 | 260 | 2.0 | 4.0 | 0.00 | 0.08 | 0.04 | 54 | 1010.2 |
| 20260505225122 | 55 | 268 | 2.0 | 5.0 | 0.00 | 0.08 | 0.04 | 53 | 1010.2 |
| 20260505224122 | 55 | 256 | 2.0 | 5.0 | 0.00 | 0.08 | 0.04 | 52 | 1010.3 |
| 20260505223125 | 55 | 273 | 3.0 | 4.0 | 0.00 | 0.08 | 0.04 | 51 | 1010.3 |
| 20260505222122 | 55 | 86 | 2.0 | 5.0 | 0.00 | 0.08 | 0.04 | 52 | 1010.3 |
| 20260505221122 | 55 | 263 | 3.0 | 7.0 | 0.00 | 0.08 | 0.04 | 51 | 1010.4 |
| 20260505220122 | 55 | 279 | 3.0 | 5.0 | 0.00 | 0.08 | 0.04 | 51 | 1010.4 |
| 20260505215122 | 55 | 285 | 3.0 | 5.0 | 0.00 | 0.08 | 0.04 | 52 | 1010.4 |
| 20260505214122 | 55 | 269 | 3.0 | 7.0 | 0.00 | 0.08 | 0.04 | 52 | 1010.5 |
| 20260505213122 | 55 | 317 | 2.0 | 6.0 | 0.00 | 0.08 | 0.04 | 51 | 1010.4 |
| 20260505212122 | 55 | 255 | 3.0 | 5.0 | 0.00 | 0.08 | 0.04 | 50 | 1010.4 |
| 20260505211129 | 55 | 7 | 2.0 | 4.0 | 0.00 | 0.08 | 0.04 | 51 | 1010.5 |
| 20260505210122 | 55 | 267 | 3.0 | 6.0 | 0.00 | 0.08 | 0.04 | 53 | 1010.5 |
| 20260505205122 | 56 | 287 | 3.0 | 6.0 | 0.00 | 0.08 | 0.04 | 54 | 1010.8 |
| 20260505204122 | 56 | 279 | 3.0 | 5.0 | 0.00 | 0.08 | 0.04 | 58 | 1011.0 |
| 20260505203143 | 56 | 260 | 3.0 | 6.0 | 0.00 | 0.08 | 0.04 | 58 | 1011.0 |
| 20260505202122 | 55 | 224 | 1.0 | 4.0 | 0.00 | 0.08 | 0.04 | 64 | 1011.3 |
| 20260505201122 | 54 | 261 | 2.0 | 4.0 | 0.00 | 0.08 | 0.04 | 64 | 1011.3 |
| 20260505200123 | 54 | 256 | 2.0 | 4.0 | 0.00 | 0.08 | 0.04 | 63 | 1011.3 |
| 20260505195124 | 54 | 229 | 2.0 | 3.0 | 0.00 | 0.08 | 0.04 | 64 | 1011.7 |
| 20260505194122 | 54 | 231 | 1.0 | 3.0 | 0.00 | 0.08 | 0.04 | 64 | 1011.7 |
| 20260505193122 | 54 | 256 | 2.0 | 5.0 | 0.00 | 0.08 | 0.04 | 64 | 1011.7 |
| 20260505192145 | 53 | 250 | 3.0 | 5.0 | 0.00 | 0.08 | 0.04 | 64 | 1011.5 |
| 20260505191122 | 54 | 267 | 2.0 | 5.0 | 0.00 | 0.08 | 0.04 | 63 | 1011.7 |
| 20260505190122 | 53 | 261 | 2.0 | 4.0 | 0.00 | 0.08 | 0.04 | 64 | 1011.7 |
| 20260505185122 | 53 | 280 | 2.0 | 4.0 | 0.00 | 0.08 | 0.04 | 66 | 1011.7 |
| 20260505184122 | 53 | 275 | 2.0 | 4.0 | 0.00 | 0.08 | 0.04 | 61 | 1011.7 |
| 20260505183122 | 53 | 271 | 3.0 | 6.0 | 0.00 | 0.08 | 0.04 | 61 | 1011.7 |
| 20260505182122 | 53 | 265 | 2.0 | 5.0 | 0.00 | 0.08 | 0.04 | 59 | 1011.7 |
| 20260505181122 | 53 | 268 | 3.0 | 6.0 | 0.00 | 0.08 | 0.04 | 60 | 1011.9 |
| 20260505180128 | 53 | 279 | 2.0 | 4.0 | 0.00 | 0.08 | 0.04 | 61 | 1011.9 |
| 20260505180122 | 53 | 275 | 3.0 | 5.0 | 0.00 | 0.08 | 0.04 | 62 | 1011.9 |
| 20260505175123 | 54 | 257 | 2.0 | 5.0 | 0.00 | 0.08 | 0.04 | 61 | 1011.9 |
| 20260505174122 | 54 | 300 | 2.0 | 4.0 | 0.00 | 0.08 | 0.04 | 62 | 1011.8 |
| 20260505173122 | 53 | 219 | 2.0 | 6.0 | 0.00 | 0.08 | 0.04 | 61 | 1011.7 |
| 20260505172122 | 53 | 253 | 3.0 | 6.0 | 0.00 | 0.08 | 0.04 | 60 | 1011.7 |
| 20260505171122 | 53 | 291 | 3.0 | 4.0 | 0.00 | 0.08 | 0.04 | 61 | 1011.4 |
| 20260505170126 | 54 | 320 | 3.0 | 7.0 | 0.00 | 0.08 | 0.04 | 60 | 1011.4 |
| 20260505165122 | 54 | 12 | 4.0 | 8.0 | 0.00 | 0.08 | 0.04 | 57 | 1011.4 |
| 20260505164122 | 54 | 257 | 4.0 | 7.0 | 0.00 | 0.08 | 0.04 | 58 | 1011.2 |
| 20260505163122 | 53 | 261 | 4.0 | 7.0 | 0.00 | 0.08 | 0.04 | 63 | 1011.2 |
| 20260505162122 | 54 | 288 | 4.0 | 7.0 | 0.00 | 0.08 | 0.04 | 62 | 1011.2 |
| 20260505161122 | 54 | 276 | 3.0 | 5.0 | 0.00 | 0.08 | 0.04 | 66 | 1011.0 |
| 20260505160122 | 54 | 243 | 3.0 | 7.0 | 0.00 | 0.08 | 0.04 | 62 | 1011.0 |
| 20260505153122 | 52 | 283 | 3.0 | 7.0 | 0.00 | 0.08 | 0.04 | 73 | 1010.7 |
| 20260505152122 | 51 | 265 | 3.0 | 6.0 | 0.00 | 0.08 | 0.04 | 74 | 1010.4 |
| 20260505151122 | 51 | 334 | 4.0 | 6.0 | 0.00 | 0.08 | 0.04 | 74 | 1010.4 |
| 20260505150122 | 51 | 275 | 4.0 | 7.0 | 0.00 | 0.08 | 0.04 | 78 | 1010.4 |
| 20260505140122 | 47 | 72 | 2.0 | 4.0 | 0.00 | 0.08 | 0.04 | 90 | 1010.2 |
| 20260505130122 | 46 | 275 | 2.0 | 4.0 | 0.04 | 0.08 | 0.04 | 93 | 1010.3 |
| 20260505124122 | 46 | 252 | 4.0 | 6.0 | 0.03 | 0.07 | 0.03 | 90 | 1010.9 |
| 20260505123122 | 47 | 283 | 2.0 | 4.0 | 0.02 | 0.06 | 0.02 | 87 | 1011.2 |
| 20260505122143 | 47 | 268 | 4.0 | 8.0 | 0.00 | 0.04 | 0.00 | 82 | 1011.7 |
| 20260505121122 | 48 | 272 | 4.0 | 8.0 | 0.00 | 0.04 | 0.00 | 77 | 1011.7 |
| 20260505120143 | 50 | 277 | 4.0 | 7.0 | 0.00 | 0.04 | 0.00 | 71 | 1011.7 |
| 20260505115122 | 50 | 274 | 4.0 | 8.0 | 0.00 | 0.04 | 0.00 | 69 | 1011.5 |
| 20260505114122 | 50 | 264 | 4.0 | 6.0 | 0.00 | 0.04 | 0.00 | 68 | 1009.8 |
| 20260505113122 | 50 | 259 | 4.0 | 6.0 | 0.00 | 0.04 | 0.00 | 69 | 1009.0 |
| 20260505112122 | 49 | 308 | 3.0 | 5.0 | 0.00 | 0.04 | 0.00 | 72 | 1008.9 |
| 20260505111121 | 50 | 268 | 3.0 | 6.0 | 0.00 | 0.04 | 0.00 | 71 | 1009.2 |
| 20260505110121 | 51 | 268 | 3.0 | 8.0 | 0.00 | 0.04 | 0.00 | 69 | 1009.2 |
| 20260505102121 | 52 | 269 | 4.0 | 8.0 | 0.00 | 0.04 | 0.00 | 63 | 1008.8 |
| 20260505101121 | 52 | 257 | 3.0 | 6.0 | 0.00 | 0.04 | 0.00 | 63 | 1008.7 |
| 20260505100121 | 52 | 263 | 3.0 | 8.0 | 0.00 | 0.04 | 0.00 | 62 | 1008.7 |
| 20260505095121 | 52 | 279 | 3.0 | 5.0 | 0.00 | 0.04 | 0.00 | 63 | 1008.7 |
| 20260505094121 | 53 | 265 | 3.0 | 6.0 | 0.00 | 0.04 | 0.00 | 62 | 1008.2 |
| 20260505093121 | 53 | 288 | 4.0 | 6.0 | 0.00 | 0.04 | 0.00 | 61 | 1008.2 |
| 20260505092121 | 53 | 258 | 3.0 | 8.0 | 0.00 | 0.04 | 0.00 | 63 | 1008.5 |
| 20260505091142 | 53 | 263 | 3.0 | 5.0 | 0.00 | 0.04 | 0.00 | 64 | 1008.0 |
| 20260505090142 | 54 | 314 | 2.0 | 7.0 | 0.00 | 0.04 | 0.00 | 62 | 1008.0 |
| 20260505085142 | 54 | 261 | 2.0 | 5.0 | 0.00 | 0.04 | 0.00 | 62 | 1008.2 |
| 20260505084121 | 55 | 255 | 2.0 | 4.0 | 0.00 | 0.04 | 0.00 | 61 | 1007.9 |
| 20260505083121 | 55 | 271 | 2.0 | 5.0 | 0.00 | 0.04 | 0.00 | 60 | 1007.7 |
| 20260505082121 | 55 | 275 | 3.0 | 5.0 | 0.00 | 0.04 | 0.00 | 60 | 1007.7 |
| 20260505081142 | 55 | 262 | 5.0 | 7.0 | 0.00 | 0.04 | 0.00 | 59 | 1007.2 |
| 20260505080121 | 55 | 280 | 3.0 | 7.0 | 0.00 | 0.04 | 0.00 | 60 | 1007.2 |
| 20260505075121 | 55 | 278 | 2.0 | 6.0 | 0.00 | 0.04 | 0.00 | 60 | 1006.4 |
| 20260505074121 | 56 | 275 | 3.0 | 6.0 | 0.00 | 0.04 | 0.00 | 61 | 1006.2 |
| 20260505073121 | 56 | 252 | 3.0 | 5.0 | 0.00 | 0.04 | 0.00 | 61 | 1006.0 |
| 20260505072121 | 56 | 247 | 2.0 | 9.0 | 0.00 | 0.04 | 0.00 | 64 | 1005.8 |
| 20260505071142 | 56 | 277 | 2.0 | 5.0 | 0.00 | 0.04 | 0.00 | 63 | 1005.9 |
| 20260505070142 | 56 | 270 | 2.0 | 6.0 | 0.00 | 0.04 | 0.00 | 62 | 1005.9 |
| 20260505065121 | 57 | 264 | 2.0 | 7.0 | 0.00 | 0.04 | 0.00 | 64 | 1005.7 |
| 20260505064142 | 57 | 270 | 4.0 | 7.0 | 0.00 | 0.04 | 0.00 | 66 | 1005.7 |
| 20260505063121 | 57 | 258 | 3.0 | 7.0 | 0.00 | 0.04 | 0.00 | 68 | 1005.4 |
| 20260505062121 | 57 | 282 | 3.0 | 4.0 | 0.00 | 0.04 | 0.00 | 69 | 1005.2 |
| 20260505061121 | 57 | 255 | 3.0 | 4.0 | 0.00 | 0.04 | 0.00 | 72 | 1004.7 |
| 20260505060121 | 57 | 267 | 2.0 | 7.0 | 0.00 | 0.04 | 0.00 | 74 | 1004.7 |
| 20260505055121 | 58 | 270 | 3.0 | 5.0 | 0.00 | 0.04 | 0.00 | 80 | 1004.7 |
| 20260505054121 | 58 | 265 | 3.0 | 6.0 | 0.00 | 0.04 | 0.00 | 83 | 1004.8 |
| 20260505053121 | 58 | 269 | 2.0 | 4.0 | 0.00 | 0.04 | 0.00 | 83 | 1004.5 |
| 20260505052121 | 58 | 234 | 1.0 | 4.0 | 0.00 | 0.04 | 0.00 | 85 | 1004.2 |
| 20260505051121 | 58 | 302 | 1.0 | 5.0 | 0.00 | 0.04 | 0.00 | 86 | 1004.0 |
| 20260505050121 | 59 | 322 | 1.0 | 4.0 | 0.00 | 0.04 | 0.00 | 87 | 1004.0 |
| 20260505041121 | 61 | 248 | 2.0 | 4.0 | 0.00 | 0.04 | 0.04 | 89 | 1003.2 |
| 20260505040121 | 61 | 280 | 3.0 | 7.0 | 0.00 | 0.04 | 0.04 | 89 | 1003.2 |
| 20260505035142 | 61 | 299 | 3.0 | 6.0 | 0.00 | 0.04 | 0.04 | 89 | 1002.5 |
| 20260505034121 | 60 | 245 | 1.0 | 4.0 | 0.01 | 0.04 | 0.04 | 92 | 1002.2 |
| 20260505033121 | 59 | 354 | 1.0 | 3.0 | 0.02 | 0.04 | 0.04 | 94 | 1002.7 |
| 20260505032128 | 60 | 296 | 1.0 | 5.0 | 0.04 | 0.04 | 0.04 | 94 | 1002.4 |
| 20260505031121 | 60 | 280 | 2.0 | 4.0 | 0.04 | 0.04 | 0.04 | 93 | 1002.7 |
| 20260505030121 | 60 | 282 | 2.0 | 4.0 | 0.04 | 0.04 | 0.04 | 94 | 1002.7 |
| 20260505025121 | 60 | 231 | 4.0 | 8.0 | 0.04 | 0.04 | 0.04 | 93 | 1003.0 |
| 20260505024121 | 60 | 264 | 5.0 | 9.0 | 0.03 | 0.03 | 0.03 | 90 | 1002.8 |
| 20260505023121 | 62 | 280 | 5.0 | 9.0 | 0.02 | 0.02 | 0.02 | 87 | 1003.2 |
| 20260505022121 | 65 | 272 | 6.0 | 10.0 | 0.00 | 0.00 | 0.00 | 70 | 1002.5 |
| 20260505021121 | 65 | 248 | 6.0 | 9.0 | 0.00 | 0.00 | 0.00 | 68 | 1002.2 |
| 20260505020121 | 66 | 246 | 7.0 | 13.0 | 0.00 | 0.00 | 0.00 | 66 | 1002.2 |
| 20260505015142 | 68 | 255 | 7.0 | 13.0 | 0.00 | 0.00 | 0.00 | 60 | 1002.2 |
| 20260505014121 | 69 | 254 | 9.0 | 17.0 | 0.00 | 0.00 | 0.00 | 57 | 1002.0 |
| 20260505013142 | 71 | 287 | 6.0 | 18.0 | 0.00 | 0.00 | 0.00 | 56 | 1001.9 |